Regional Weather Roundup
Issued by NWS

Home | Current Version | Previous Version | Graphics & Text | Print | Product List | Glossary On
Versions: 1 2 3 4 5 6 7 8 9 10 11 12 13 14 15 16 17 18 19 20 21 22 23 24 25 26 27 28 29 30 31 32 33 34 35 36 37 38 39 40 41 42 43 44 45 46 47 48 49
000
ASUS45 KBOU 032310
RWRCO

WEATHER ROUNDUP FOR COLORADO
NATIONAL WEATHER SERVICE DENVER/BOULDER CO
500 PM MDT FRI JUL 03 2015

NOTE: "FAIR" INDICATES FEW OR NO CLOUDS BELOW 12000 FEET WITH NO
SIGNIFICANT WEATHER AND/OR OBSTRUCTIONS TO VISIBILITY.

COZ001>005-013-030-031-040000-
...NORTHWEST COLORADO...

CITY           SKY/WX    TMP DP  RH WIND       PRES   REMARKS
CRAIG          SUNNY     92  33  12 NE3       30.07F
HAYDEN         PTSUNNY   88  36  15 N12       30.10F
MEEKER         PTSUNNY   85  48  27 S8        30.09F
MOUNT WERNER   NOT AVBL
STEAMBOAT SPGS MOSUNNY   85  38  18 NW9       30.13F
WALDEN         SUNNY     77  30  18 NW5       30.25F
$$

COZ006>008-011-040000-
...WEST CENTRAL VALLEYS...

CITY           SKY/WX    TMP DP  RH WIND       PRES   REMARKS
GRAND JUNCTION PTSUNNY   96  44  16 W13       29.93F
MONTROSE       CLOUDY    80  49  33 W9        30.07F
EAGLE          MOSUNNY   86  41  20 S6        30.13F
RIFLE          PTSUNNY   90  44  20 S8        30.02F
DELTA          CLOUDY    89  48  24 SW9G18    30.01F
NUCLA          CLOUDY    86  46  25 SW6       30.12R
$$

COZ017>023-064>068-040000-
...SOUTHWEST COLORADO...

CITY           SKY/WX    TMP DP  RH WIND       PRES   REMARKS
DURANGO        CLOUDY    75  49  39 SE14G25   30.18S
CORTEZ         SUNNY     88  50  27 S7        30.08F
PAGOSA SPRINGS CLOUDY    63  51  64 W3        30.31S
TELLURIDE      PTSUNNY   66  48  52 E15G22    30.38R
WOLF CREEK PAS NOT AVBL
$$

COZ009-010-012-014-032>034-037-058>063-040000-
...CENTRAL COLORADO...

CITY           SKY/WX    TMP DP  RH WIND       PRES   REMARKS
ASPEN          PTSUNNY   75  47  36 VRB6      30.24S
BUENA VISTA    PTSUNNY   72  44  36 SE10      30.26S
COPPER MTN     MOSUNNY   64  28  25 W23G29    30.59F
BERTHOUD PASS  PTSUNNY   46  37  71 E14G23    30.64F THUNDER
COTTONWOOD PAS NOT AVBL
GUNNISON       PTSUNNY   75  45  33 N5        30.26F
KREMMLING      SUNNY     88  14   6 N5G16     30.18F
LEADVILLE      MOSUNNY   71  33  24 NW8       30.39F
MONARCH PASS   PTSUNNY   55  43  62 W15       30.69F
SALIDA         PTSUNNY   77  49  36 SW5       30.30S
SUNLIGHT       PTSUNNY   70  43  37 CALM      30.52F
WILKERSON PASS TSTM      54  45  71 S3G17     30.55S
$$

COZ069>075-040000-
...SAN LUIS VALLEY/SANGRE DE CRISTO MOUNTAINS...

CITY           SKY/WX    TMP DP  RH WIND       PRES   REMARKS
ALAMOSA        PTSUNNY   75  45  34 SW9       30.21F
LA VETA PASS   TSTM      46  43  87 MISG      30.48R VSB 1/2
SAGUACHE       MOSUNNY   77  46  33 SW5       30.26S
$$

COZ035-036-038>040-040000-
...NORTHERN COLORADO FRONT RANGE...

CITY           SKY/WX    TMP DP  RH WIND       PRES   REMARKS
DENVER INTL AP MOSUNNY   83  53  35 SE10      30.08F
DMNS CITY PARK   N/A     85  55  35 E8        30.07F
AURORA         MOSUNNY   82  58  43 E8        30.10F
FRONT RANGE AP NOT AVBL
ERIE MUNI ARPT MOSUNNY   84  51  31 CALM      30.06F
BOULDER MUN AP MOSUNNY   82  54  36 CALM      30.07F
CENTENNIAL     MOSUNNY   82  53  36 NE3       30.11F
BROOMFIELD     MOSUNNY   82  54  36 SE3       30.12F
FORT COLLINS   SUNNY     82  57  42 SE9       30.04F
LONGMONT       SUNNY     87  55  33 SW3       30.07F
$$

COZ041-046-047-076>085-087-088-040000-
...PIKES PEAK/PALMER DIVIDE AND SOUTHERN FOOTHILLS...

CITY           SKY/WX    TMP DP  RH WIND       PRES   REMARKS
COLO. SPRINGS  MOSUNNY   80  52  37 E8        30.14F
A. F. ACADEMY  MOSUNNY   78  53  42 S9        30.15F
ELLICOTT       SUNNY    N/A N/A N/A CALM      30.14F
FALCON         MOSUNNY   80  48  33 S3        30.21F
FORT CARSON    SUNNY     83  56  39 VRB1      30.11F
LIMON          SUNNY     81  56  42 VRB6      30.11F
MONUMENT HILL  NOT AVBL
TRINIDAD       MOSUNNY   83  52  34 S8        30.09F
$$

COZ042>045-048>051-090-091-040000-
...NORTHEAST COLORADO...

CITY           SKY/WX    TMP DP  RH WIND       PRES   REMARKS
GREELEY ARPT   SUNNY     84  57  39 E7        30.05F
AKRON          SUNNY     82  56  40 SE6       30.06F
BURLINGTON     MOSUNNY   87  54  32 NE9       30.05F
WRAY           SUNNY     88  51  27 CALM      30.01F
STERLING       SUNNY     84  55  37 SE3         N/A
HOLYOKE        SUNNY     88  54  31 E7        30.02F
FORT MORGAN    SUNNY     85  52  32 E8        30.05F
$$

COZ086-089-092>099-040000-
...SOUTHEAST COLORADO...

CITY           SKY/WX    TMP DP  RH WIND       PRES   REMARKS
PUEBLO         MOSUNNY   90  53  28 S8        30.01F
LA JUNTA       SUNNY     91  57  31 E13       29.99F
LAMAR          SUNNY     89  57  33 CALM      29.96F
SPRINGFIELD      N/A     84  55  36 S12       30.03F
$$


USA.gov is the U.S. government's official web portal to all federal, state and local government web resources and services.